TimeMDT,TemperatureF,Dew PointF,Humidity,Sea Level PressureIn,VisibilityMPH,Wind Direction,Wind SpeedMPH,Gust SpeedMPH,PrecipitationIn,Events,Conditions,WindDirDegrees,DateUTC
12:53 AM,64.9,15.1,15,29.65,10.0,Calm,Calm,-,N/A,,Clear,0,2013-06-20 06:53:00
1:53 AM,57.9,21.0,24,29.69,10.0,SE,3.5,-,N/A,,Clear,130,2013-06-20 07:53:00
2:53 AM,55.9,18.0,23,29.71,10.0,Calm,Calm,-,N/A,,Clear,0,2013-06-20 08:53:00
3:53 AM,53.1,19.0,26,29.73,10.0,NE,4.6,-,N/A,,Clear,50,2013-06-20 09:53:00
4:53 AM,52.0,19.0,27,29.76,10.0,Variable,3.5,-,N/A,,Clear,0,2013-06-20 10:53:00
5:53 AM,45.0,24.1,44,29.81,10.0,ENE,3.5,-,N/A,,Clear,60,2013-06-20 11:53:00
6:53 AM,48.9,24.1,38,29.82,10.0,Calm,Calm,-,N/A,,Clear,0,2013-06-20 12:53:00
7:53 AM,55.0,28.0,35,29.82,10.0,NNE,3.5,-,N/A,,Clear,20,2013-06-20 13:53:00
8:53 AM,61.0,27.0,27,29.81,10.0,Variable,3.5,-,N/A,,Clear,0,2013-06-20 14:53:00
9:53 AM,66.9,25.0,21,29.80,10.0,Variable,4.6,-,N/A,,Clear,0,2013-06-20 15:53:00
10:53 AM,72.0,28.0,20,29.79,10.0,Variable,3.5,-,N/A,,Clear,0,2013-06-20 16:53:00
11:53 AM,77.0,23.0,13,29.77,10.0,Calm,Calm,-,N/A,,Clear,0,2013-06-20 17:53:00
12:53 PM,82.0,19.0,10,29.72,10.0,WNW,12.7,-,N/A,,Clear,300,2013-06-20 18:53:00
1:53 PM,86.0,18.0,8,29.70,10.0,Variable,3.5,-,N/A,,Clear,0,2013-06-20 19:53:00
2:37 PM,87.8,17.6,8,29.90,10.0,South,10.4,23.0,N/A,,Clear,190,2013-06-20 20:37:00
2:53 PM,87.1,19.0,8,29.68,10.0,SSE,11.5,21.9,N/A,,Clear,150,2013-06-20 20:53:00
3:53 PM,89.1,15.1,6,29.68,10.0,WSW,25.3,33.4,N/A,,Clear,240,2013-06-20 21:53:00
4:53 PM,87.1,15.1,7,29.67,10.0,SSW,5.8,21.9,N/A,,Clear,210,2013-06-20 22:53:00
5:30 PM,87.8,15.8,7,29.87,10.0,West,16.1,24.2,N/A,,Clear,260,2013-06-20 23:30:00
5:40 PM,87.8,15.8,7,29.87,10.0,West,15.0,23.0,N/A,,Clear,280,2013-06-20 23:40:00
5:53 PM,88.0,15.1,7,29.68,10.0,SW,9.2,26.5,N/A,,Clear,220,2013-06-20 23:53:00
6:53 PM,87.1,12.9,6,29.68,10.0,SW,19.6,24.2,N/A,,Clear,220,2013-06-21 00:53:00
7:53 PM,84.9,14.0,7,29.66,10.0,SW,9.2,-,N/A,,Clear,220,2013-06-21 01:53:00
8:53 PM,80.1,12.0,8,29.68,10.0,WSW,17.3,-,N/A,,Clear,240,2013-06-21 02:53:00
9:53 PM,73.0,18.0,12,29.72,10.0,NNW,3.5,-,N/A,,Clear,340,2013-06-21 03:53:00
10:53 PM,64.9,15.1,15,29.75,10.0,East,6.9,-,N/A,,Clear,100,2013-06-21 04:53:00
11:53 PM,62.1,19.0,19,29.75,10.0,East,10.4,-,N/A,,Clear,90,2013-06-21 05:53:00